Regional Weather Roundup
Issued by NWS

Home | Current Version | Previous Version | Text Only | Print | Product List | Glossary On
Versions: 1 2 3 4 5 6 7 8 9 10 11 12 13 14 15 16 17 18 19 20 21 22 23 24 25 26 27 28 29 30 31 32 33 34 35 36 37 38 39 40 41 42 43 44 45 46 47 48 49 50
793
ASUS44 KJAN 121210
RWRMS

MISSISSIPPI HOURLY WEATHER ROUNDUP
NATIONAL WEATHER SERVICE JACKSON MS
600 AM CST TUE DEC 12 2017

NOTE: "FAIR: INDICATES FEW OR NO CLOUDS BELOW 12,000 FEET WITH NO
SIGNIFICANT WEATHER AND/OR OBSTRUCTIONS TO VISIBILITY.

MSZ001>002-007>008-010>013-018>021-025>028-034>036-121300-
NORTHWEST MISSISSIPPI

CITY           SKY/WX    TMP DP  RH WIND       PRES   REMARKS
BATESVILLE     FAIR      45  30  56 NW7       30.12R
CLARKSDALE     PTCLDY    43  34  70 NW9       30.15R
CLEVELAND      FAIR      42  32  67 NW6       30.15R
GREENWOOD      CLEAR     45  32  60 VRB5      30.12R
6HR MIN TEMP:  36; 6HR MAX TEMP:  51;

GREENVILLE     CLEAR     46  30  53 NW10      30.15R
6HR MIN TEMP:  44; 6HR MAX TEMP:  53;

OXFORD         FAIR      43  30  61 NW8       30.10R
TUNICA           N/A    N/A N/A N/A NW13      30.14R
WINONA         FAIR      46  31  56 NW7       30.10R
$$

MSZ003>006-009-014>017-022>024-029>033-037>039-121300-
NORTHEAST MISSISSIPPI

CITY           SKY/WX    TMP DP  RH WIND       PRES   REMARKS
ABERDEEN       FAIR      43  34  70 NW6       30.05R
COLUMBUS AFB   CLEAR     42  30  63 NW7       30.04R
6HR MIN TEMP:  42; 6HR MAX TEMP:  49;

CORINTH        FAIR      45  32  61 NW10      30.04R
GOLDN TRIANGLE CLEAR     44  29  55 NW6       30.06R
STARKVILLE     FAIR      45  30  57 CALM      30.07R
TUPELO         CLEAR     46  29  51 NW10      30.05R
6HR MIN TEMP:  46; 6HR MAX TEMP:  54;

$$

MSZ040-058-121300-
CENTRAL MISSISSIPPI

CITY           SKY/WX    TMP DP  RH WIND       PRES   REMARKS
JACKSON INTL   PTCLDY    47  30  51 NW6       30.10R
6HR MIN TEMP:  44; 6HR MAX TEMP:  55;

JACKSON HAWKNS PTCLDY    46  30  53 NW3       30.12R
6HR MIN TEMP:  46; 6HR MAX TEMP:  53;

MADISON        FAIR      43  30  61 CALM      30.11R
MERIDIAN KEY   PTCLDY    34  33  96 S3        30.08R
6HR MIN TEMP:  34; 6HR MAX TEMP:  43;

MERIDIAN NAS   CLEAR     43  32  65 NW7       30.06R
6HR MIN TEMP:  42; 6HR MAX TEMP:  53;

RAYMOND        FAIR      45  30  57 NW5       30.13R
VICKSBURG VKS  SUNNY     39  34  81 CALM      30.17R
$$

MSZ059>079-121300-
SOUTH MISSISSIPPI

CITY           SKY/WX    TMP DP  RH WIND       PRES   REMARKS
HATTIESBURG    CLEAR     50  37  61 NW7       30.09R
6HR MIN TEMP:  48; 6HR MAX TEMP:  53;

LAUREL         FAIR      42  34  71 NW7       30.09R
MCCOMB         PTCLDY    44  36  73 N7        30.11R
6HR MIN TEMP:  44; 6HR MAX TEMP:  49;

NATCHEZ        PTCLDY    47  32  56 N5        30.17R
6HR MIN TEMP:  44; 6HR MAX TEMP:  54;

PINE BELT      CLEAR     46  36  68 NW6       30.10R
6HR MIN TEMP:  43; 6HR MAX TEMP:  48;

$$

MSZ080>082-121300-
COASTAL MISSISSIPPI

CITY           SKY/WX    TMP DP  RH WIND       PRES   REMARKS
BILOXI         CLEAR     49  43  80 NW6       30.06R
6HR MIN TEMP:  49; 6HR MAX TEMP:  52;

PASCAGOULA     CLEAR     47  42  83 VRB5      30.06R
6HR MIN TEMP:  45; 6HR MAX TEMP:  51;

GULFPORT       CLEAR     49  43  80 W8        30.07R
6HR MIN TEMP:  48; 6HR MAX TEMP:  53;

$$

LAZ007>009-015>016-023>026-121300-
NORTHEAST LOUISIANA

CITY           SKY/WX    TMP DP  RH WIND       PRES   REMARKS
BASTROP        FAIR      39  27  62 CALM      30.19R
TALLULAH/VBURG CLEAR     45  31  58 NW5       30.16R
6HR MIN TEMP:  45; 6HR MAX TEMP:  53;

VIDALIA          N/A    N/A N/A N/A MISG      30.16R
$$




USA.gov is the U.S. government's official web portal to all federal, state and local government web resources and services.